MAC835 GMTT-LEBB

Flight info

Callsign MAC835
Flight time 1h 21m
Altitude 14000
Route ADKIM DCT LINTO N10 VJF/N0429F340 N10 HIJ Z230 TLD N858 DGO
Aircraft A320/M-SDE3FGHIRWY/LB1

Departure

Time 2026-04-22 14:12
Airport Tangier Ibn Battuta Airport (GMTT)

Arrival

Time 2026-04-22 15:33
Airport Bilbao Airport (LEBB)
Time Latitude Longitude Altitude Speed Heading
2026-04-22 13:43 35.72645 -5.91607 56 ft 0 kts 86°
2026-04-22 14:02 35.72646 -5.91607 60 ft 0 kts 86°
2026-04-22 14:06 35.72645 -5.91614 60 ft 4 kts 85°
2026-04-22 14:06 35.72641 -5.91647 45 ft 4 kts 75°
2026-04-22 14:06 35.72632 -5.91678 54 ft 4 kts 54°
2026-04-22 14:07 35.72614 -5.91696 55 ft 3 kts
2026-04-22 14:07 35.72607 -5.91695 55 ft 0 kts 356°
2026-04-22 14:09 35.72637 -5.91697 60 ft 12 kts 356°
2026-04-22 14:09 35.72741 -5.91707 60 ft 16 kts 355°
2026-04-22 14:09 35.72860 -5.91719 60 ft 18 kts 356°
2026-04-22 14:09 35.72940 -5.91656 52 ft 15 kts 91°
2026-04-22 14:10 35.72929 -5.91527 52 ft 17 kts 96°
2026-04-22 14:10 35.72914 -5.91384 55 ft 18 kts 97°
2026-04-22 14:10 35.72899 -5.91213 53 ft 23 kts 96°
2026-04-22 14:10 35.72879 -5.91003 60 ft 26 kts 96°
2026-04-22 14:11 35.72964 -5.90860 55 ft 19 kts
2026-04-22 14:11 35.73052 -5.90944 53 ft 17 kts 291°
2026-04-22 14:11 35.73072 -5.91142 62 ft 46 kts 276°
2026-04-22 14:11 35.73137 -5.91822 60 ft 111 kts 276°
2026-04-22 14:12 35.73245 -5.92977 67 ft 159 kts 276°
2026-04-22 14:12 35.73398 -5.94305 719 ft 155 kts 279°
2026-04-22 14:12 35.73646 -5.95610 1267 ft 161 kts 301°
2026-04-22 14:12 35.74525 -5.96537 1585 ft 181 kts 344°
2026-04-22 14:13 35.75850 -5.96621 1917 ft 204 kts
2026-04-22 14:13 35.77331 -5.96405 2429 ft 222 kts
2026-04-22 14:13 35.78909 -5.96161 3013 ft 239 kts
2026-04-22 14:13 35.80654 -5.96086 3450 ft 263 kts 359°
2026-04-22 14:14 35.82530 -5.96140 4136 ft 275 kts 357°
2026-04-22 14:14 35.84459 -5.96238 4990 ft 281 kts 356°
2026-04-22 14:14 35.86429 -5.96341 5866 ft 285 kts 356°
2026-04-22 14:14 35.88405 -5.96434 6692 ft 290 kts 356°
2026-04-22 14:15 35.90443 -5.96514 7492 ft 296 kts 355°
2026-04-22 14:15 35.92517 -5.96587 8293 ft 301 kts 354°
2026-04-22 14:15 35.94634 -5.96657 9077 ft 307 kts 354°
2026-04-22 14:15 35.96782 -5.96727 9873 ft 312 kts 353°
2026-04-22 14:16 35.98952 -5.96799 10357 ft 328 kts 353°
2026-04-22 14:16 36.01317 -5.96883 10596 ft 352 kts 354°
2026-04-22 14:16 36.03847 -5.96972 10785 ft 375 kts 354°
2026-04-22 14:16 36.06539 -5.97063 10916 ft 398 kts 355°
2026-04-22 14:17 36.09378 -5.97153 11138 ft 415 kts 355°
2026-04-22 14:17 36.12287 -5.97233 11664 ft 422 kts 355°
2026-04-22 14:17 36.15245 -5.97307 12276 ft 426 kts 356°
2026-04-22 14:17 36.18217 -5.97383 12874 ft 430 kts 356°
2026-04-22 14:18 36.21225 -5.97467 13465 ft 434 kts 356°
2026-04-22 14:18 36.24263 -5.97444 14027 ft 439 kts
2026-04-22 14:18 36.27302 -5.96966 14566 ft 443 kts
2026-04-22 14:18 36.30362 -5.96425 15108 ft 445 kts
2026-04-22 14:19 36.33396 -5.95891 15631 ft 447 kts
2026-04-22 14:19 36.36515 -5.95338 16189 ft 449 kts
2026-04-22 14:19 36.39618 -5.94784 16717 ft 451 kts
2026-04-22 14:19 36.42694 -5.94233 17225 ft 453 kts
2026-04-22 14:20 36.48966 -5.93121 18247 ft 458 kts
2026-04-22 14:20 36.52130 -5.92560 18668 ft 460 kts
2026-04-22 14:20 36.54272 -5.92181 18959 ft 461 kts
2026-04-22 14:21 36.60658 -5.91044 19822 ft 465 kts
2026-04-22 14:21 36.63815 -5.90475 20223 ft 467 kts
2026-04-22 14:22 36.71361 -5.89124 21133 ft 470 kts
2026-04-22 14:22 36.73509 -5.88738 21390 ft 472 kts
2026-04-22 14:22 36.80036 -5.87569 22128 ft 475 kts
2026-04-22 14:23 36.83317 -5.86981 22495 ft 477 kts
2026-04-22 14:23 36.86610 -5.86390 22848 ft 478 kts
2026-04-22 14:23 36.89901 -5.85799 23190 ft 480 kts
2026-04-22 14:23 36.93213 -5.85203 23523 ft 481 kts
2026-04-22 14:24 36.96526 -5.84607 23810 ft 483 kts
2026-04-22 14:24 36.99860 -5.84006 24080 ft 485 kts
2026-04-22 14:24 37.03207 -5.83403 24349 ft 486 kts
2026-04-22 14:24 37.06544 -5.82802 24715 ft 485 kts
2026-04-22 14:25 37.09881 -5.82199 25120 ft 484 kts
2026-04-22 14:25 37.13213 -5.81597 25480 ft 483 kts
2026-04-22 14:25 37.16530 -5.81000 25859 ft 482 kts
2026-04-22 14:25 37.19852 -5.80401 26236 ft 481 kts
2026-04-22 14:26 37.23167 -5.79798 26634 ft 480 kts
2026-04-22 14:26 37.26463 -5.79195 27024 ft 479 kts
2026-04-22 14:26 37.29764 -5.78591 27448 ft 478 kts
2026-04-22 14:26 37.33013 -5.77999 27850 ft 477 kts
2026-04-22 14:27 37.36290 -5.77402 28266 ft 476 kts
2026-04-22 14:27 37.39571 -5.76800 28674 ft 476 kts
2026-04-22 14:27 37.42810 -5.75865 29068 ft 479 kts 14°
2026-04-22 14:27 37.45927 -5.74330 29468 ft 482 kts 22°
2026-04-22 14:28 37.48943 -5.72503 29862 ft 482 kts 22°
2026-04-22 14:28 37.51964 -5.70674 30245 ft 480 kts 22°
2026-04-22 14:28 37.54968 -5.68852 30677 ft 477 kts 22°
2026-04-22 14:28 37.57946 -5.67046 31052 ft 475 kts 22°
2026-04-22 14:29 37.60926 -5.65242 31411 ft 474 kts 22°
2026-04-22 14:29 37.63901 -5.63442 31764 ft 473 kts 22°
2026-04-22 14:29 37.66871 -5.61643 32097 ft 473 kts 22°
2026-04-22 14:29 37.69825 -5.59848 32455 ft 472 kts 22°
2026-04-22 14:30 37.72780 -5.58046 32805 ft 471 kts 22°
2026-04-22 14:30 37.75731 -5.56245 33137 ft 470 kts 22°
2026-04-22 14:30 37.78677 -5.54447 33473 ft 469 kts 22°
2026-04-22 14:30 37.81611 -5.52658 33797 ft 469 kts 22°
2026-04-22 14:31 37.84515 -5.50885 33976 ft 471 kts 22°
2026-04-22 14:31 37.90478 -5.47238 33995 ft 474 kts 22°
2026-04-22 14:32 37.96388 -5.43623 33985 ft 474 kts 22°
2026-04-22 14:32 38.02323 -5.39979 33997 ft 474 kts 22°
2026-04-22 14:33 38.08259 -5.36325 33996 ft 474 kts 22°
2026-04-22 14:33 38.14202 -5.32668 33975 ft 474 kts 22°
2026-04-22 14:34 38.20135 -5.29011 34002 ft 473 kts 22°
2026-04-22 14:34 38.26049 -5.25353 34004 ft 473 kts 22°
2026-04-22 14:35 38.31957 -5.21695 34002 ft 472 kts 22°
2026-04-22 14:35 38.37863 -5.18040 34001 ft 472 kts 22°
2026-04-22 14:36 38.43778 -5.14364 33998 ft 472 kts 22°
2026-04-22 14:36 38.49651 -5.10704 33996 ft 472 kts 22°
2026-04-22 14:37 38.55681 -5.07254 34004 ft 470 kts 19°
2026-04-22 14:37 38.61737 -5.04266 33998 ft 470 kts 17°
2026-04-22 14:38 38.67856 -5.01292 34003 ft 470 kts 18°
2026-04-22 14:38 38.73935 -4.98201 33997 ft 470 kts 19°
2026-04-22 14:39 38.80009 -4.95043 34008 ft 470 kts 19°
2026-04-22 14:39 38.86072 -4.91887 34007 ft 471 kts 19°
2026-04-22 14:40 38.95186 -4.87193 34007 ft 470 kts 19°
2026-04-22 14:40 39.01226 -4.84078 34007 ft 470 kts 19°
2026-04-22 14:41 39.07345 -4.80900 34015 ft 471 kts 19°
2026-04-22 14:41 39.13377 -4.77760 34011 ft 471 kts 19°
2026-04-22 14:42 39.19454 -4.74599 34009 ft 471 kts 19°
2026-04-22 14:42 39.25534 -4.71436 34008 ft 471 kts 19°
2026-04-22 14:43 39.31624 -4.68261 34007 ft 472 kts 19°
2026-04-22 14:43 39.37708 -4.65085 34006 ft 472 kts 19°
2026-04-22 14:44 39.43792 -4.61895 33994 ft 472 kts 19°
2026-04-22 14:44 39.49886 -4.58686 34007 ft 472 kts 20°
2026-04-22 14:45 39.55983 -4.55478 34005 ft 472 kts 19°
2026-04-22 14:45 39.62067 -4.52273 34002 ft 472 kts 19°
2026-04-22 14:46 39.68148 -4.49064 34004 ft 472 kts 19°
2026-04-22 14:46 39.74227 -4.45851 34011 ft 472 kts 20°
2026-04-22 14:47 39.80312 -4.42622 34010 ft 472 kts 20°
2026-04-22 14:47 39.86385 -4.39391 34003 ft 472 kts 20°
2026-04-22 14:48 39.92425 -4.36169 34000 ft 472 kts 20°
2026-04-22 14:48 39.98486 -4.32897 34001 ft 472 kts 21°
2026-04-22 14:49 40.04468 -4.29336 33995 ft 473 kts 23°
2026-04-22 14:49 40.10415 -4.25592 34001 ft 474 kts 23°
2026-04-22 14:50 40.16373 -4.21889 33999 ft 474 kts 23°
2026-04-22 14:50 40.22350 -4.18232 34010 ft 475 kts 23°
2026-04-22 14:51 40.28342 -4.14569 34004 ft 475 kts 23°
2026-04-22 14:51 40.34322 -4.10899 34003 ft 475 kts 23°
2026-04-22 14:52 40.40308 -4.07209 34007 ft 475 kts 23°
2026-04-22 14:52 40.46286 -4.03518 34024 ft 475 kts 23°
2026-04-22 14:53 40.52275 -3.99811 34039 ft 475 kts 23°
2026-04-22 14:53 40.58257 -3.96106 34048 ft 476 kts 23°
2026-04-22 14:54 40.64247 -3.92396 34064 ft 476 kts 23°
2026-04-22 14:54 40.70211 -3.88695 34076 ft 477 kts 23°
2026-04-22 14:55 40.76204 -3.84960 34080 ft 476 kts 23°
2026-04-22 14:55 40.82190 -3.81216 34009 ft 476 kts 23°
2026-04-22 14:56 40.88180 -3.77454 34025 ft 476 kts 23°
2026-04-22 14:56 40.94161 -3.73707 34024 ft 476 kts 23°
2026-04-22 14:57 41.00147 -3.69949 34026 ft 475 kts 23°
2026-04-22 14:57 41.06119 -3.66189 34022 ft 475 kts 23°
2026-04-22 14:58 41.12088 -3.62424 34021 ft 475 kts 23°
2026-04-22 14:58 41.18089 -3.58722 34021 ft 475 kts 21°
2026-04-22 14:59 41.24188 -3.55397 34018 ft 474 kts 19°
2026-04-22 14:59 41.30286 -3.52213 34014 ft 473 kts 19°
2026-04-22 15:00 41.36391 -3.48929 34006 ft 474 kts 20°
2026-04-22 15:00 41.42477 -3.45576 34001 ft 474 kts 20°
2026-04-22 15:01 41.48561 -3.42221 34004 ft 473 kts 20°
2026-04-22 15:01 41.54645 -3.38861 34021 ft 472 kts 19°
2026-04-22 15:02 41.60711 -3.35510 34013 ft 472 kts 19°
2026-04-22 15:02 41.66782 -3.32151 34012 ft 472 kts 19°
2026-04-22 15:03 41.72840 -3.28797 34006 ft 471 kts 19°
2026-04-22 15:03 41.78890 -3.25437 34015 ft 471 kts 19°
2026-04-22 15:04 41.84941 -3.22063 34021 ft 470 kts 19°
2026-04-22 15:04 41.90967 -3.18694 34025 ft 468 kts 19°
2026-04-22 15:05 41.96965 -3.15351 34034 ft 466 kts 19°
2026-04-22 15:05 42.02946 -3.12019 34037 ft 465 kts 19°
2026-04-22 15:06 42.08879 -3.08692 34033 ft 464 kts 20°
2026-04-22 15:06 42.14871 -3.05315 34028 ft 464 kts 20°
2026-04-22 15:07 42.19813 -3.02524 34025 ft 463 kts 19°
2026-04-22 15:07 42.25742 -2.99173 34021 ft 462 kts 19°
2026-04-22 15:08 42.31672 -2.95827 34015 ft 461 kts 19°
2026-04-22 15:08 42.37541 -2.92514 34021 ft 461 kts 19°
2026-04-22 15:09 42.43436 -2.89090 33773 ft 461 kts 21°
2026-04-22 15:09 42.46361 -2.87271 32816 ft 465 kts 22°
2026-04-22 15:09 42.49255 -2.85411 31834 ft 469 kts 22°
2026-04-22 15:10 42.52206 -2.83488 30892 ft 472 kts 23°
2026-04-22 15:10 42.55171 -2.81551 29927 ft 475 kts 23°
2026-04-22 15:10 42.58153 -2.79611 28839 ft 478 kts 23°
2026-04-22 15:10 42.61168 -2.77667 27682 ft 481 kts 23°
2026-04-22 15:11 42.64208 -2.75721 26532 ft 484 kts 23°
2026-04-22 15:11 42.67260 -2.73776 25389 ft 487 kts 23°
2026-04-22 15:11 42.70338 -2.71816 24227 ft 490 kts 23°
2026-04-22 15:11 42.73413 -2.69853 23411 ft 485 kts 24°
2026-04-22 15:12 42.76448 -2.67909 22481 ft 480 kts 24°
2026-04-22 15:12 42.79456 -2.65976 21616 ft 475 kts 24°
2026-04-22 15:12 42.82427 -2.64057 20923 ft 469 kts 24°
2026-04-22 15:12 42.85314 -2.62188 20788 ft 450 kts 23°
2026-04-22 15:13 42.88085 -2.60393 20661 ft 432 kts 24°
2026-04-22 15:13 42.90745 -2.58670 20535 ft 416 kts 23°
2026-04-22 15:13 42.93319 -2.57009 20418 ft 401 kts 23°
2026-04-22 15:13 42.95794 -2.55412 20283 ft 388 kts 24°
2026-04-22 15:14 42.98193 -2.53861 20172 ft 376 kts 23°
2026-04-22 15:14 43.00516 -2.52353 20053 ft 363 kts 24°
2026-04-22 15:14 43.02776 -2.50886 19799 ft 357 kts 23°
2026-04-22 15:14 43.05007 -2.49439 19483 ft 352 kts 23°
2026-04-22 15:15 43.07211 -2.48011 19272 ft 345 kts 24°
2026-04-22 15:15 43.09355 -2.46622 19171 ft 336 kts 23°
2026-04-22 15:15 43.11441 -2.45268 19048 ft 327 kts 23°
2026-04-22 15:15 43.13443 -2.43965 18928 ft 319 kts 23°
2026-04-22 15:16 43.15420 -2.42674 18809 ft 311 kts 24°
2026-04-22 15:16 43.17346 -2.41418 18664 ft 303 kts 23°
2026-04-22 15:16 43.19204 -2.40079 18462 ft 301 kts 34°
2026-04-22 15:16 43.20648 -2.38044 18208 ft 298 kts 59°
2026-04-22 15:17 43.21430 -2.35455 17918 ft 293 kts 82°
2026-04-22 15:17 43.21478 -2.32710 17600 ft 287 kts 104°
2026-04-22 15:17 43.20868 -2.30155 17298 ft 281 kts 118°
2026-04-22 15:17 43.20032 -2.27723 16952 ft 281 kts 121°
2026-04-22 15:18 43.19105 -2.25354 16594 ft 280 kts 129°
2026-04-22 15:18 43.17796 -2.23451 16342 ft 271 kts 148°
2026-04-22 15:18 43.16176 -2.22227 16045 ft 264 kts 166°
2026-04-22 15:18 43.14411 -2.21722 15785 ft 257 kts 182°
2026-04-22 15:19 43.12658 -2.21931 15530 ft 251 kts 198°
2026-04-22 15:19 43.11062 -2.22809 15288 ft 246 kts 214°
2026-04-22 15:19 43.09735 -2.24253 15028 ft 243 kts 229°
2026-04-22 15:19 43.08774 -2.26139 14773 ft 241 kts 244°
2026-04-22 15:20 43.08243 -2.28304 14520 ft 242 kts 259°
2026-04-22 15:20 43.08171 -2.30599 14284 ft 243 kts 274°
2026-04-22 15:20 43.08575 -2.32874 13858 ft 255 kts 290°
2026-04-22 15:20 43.09416 -2.35095 13269 ft 268 kts 294°
2026-04-22 15:21 43.10285 -2.37399 12725 ft 276 kts 293°
2026-04-22 15:21 43.11156 -2.39757 12344 ft 278 kts 293°
2026-04-22 15:21 43.12025 -2.42118 12022 ft 277 kts 293°
2026-04-22 15:21 43.12896 -2.44459 11661 ft 276 kts 296°
2026-04-22 15:22 43.14153 -2.46455 11316 ft 283 kts 321°
2026-04-22 15:22 43.15972 -2.47525 10997 ft 292 kts 347°
2026-04-22 15:22 43.18005 -2.47346 10725 ft 299 kts 15°
2026-04-22 15:22 43.19759 -2.45922 10408 ft 302 kts 45°
2026-04-22 15:23 43.20847 -2.43504 10122 ft 298 kts 75°
2026-04-22 15:23 43.21013 -2.40723 9782 ft 292 kts 103°
2026-04-22 15:23 43.20327 -2.38156 9416 ft 286 kts 120°
2026-04-22 15:23 43.19440 -2.35720 9062 ft 285 kts 121°
2026-04-22 15:24 43.18330 -2.33535 8731 ft 275 kts 142°
2026-04-22 15:24 43.16780 -2.32094 8237 ft 270 kts 162°
2026-04-22 15:24 43.14970 -2.31591 7741 ft 265 kts 183°
2026-04-22 15:24 43.13178 -2.32041 7287 ft 262 kts 204°
2026-04-22 15:25 43.11661 -2.33343 6954 ft 256 kts 224°
2026-04-22 15:25 43.10593 -2.35279 6476 ft 258 kts 244°
2026-04-22 15:25 43.10114 -2.37635 6090 ft 259 kts 265°
2026-04-22 15:25 43.10299 -2.40088 6000 ft 265 kts 285°
2026-04-22 15:26 43.11137 -2.42346 6003 ft 270 kts 307°
2026-04-22 15:26 43.12540 -2.44069 6006 ft 274 kts 322°
2026-04-22 15:26 43.13886 -2.45859 6006 ft 269 kts 297°
2026-04-22 15:26 43.14449 -2.48273 6008 ft 266 kts 280°
2026-04-22 15:27 43.15084 -2.50649 6007 ft 268 kts 295°
2026-04-22 15:27 43.15981 -2.52895 6009 ft 270 kts 296°
2026-04-22 15:27 43.16860 -2.55161 6012 ft 267 kts 295°
2026-04-22 15:27 43.17698 -2.57423 5939 ft 269 kts 295°
2026-04-22 15:28 43.18551 -2.59732 5605 ft 276 kts 296°
2026-04-22 15:28 43.19413 -2.62055 5208 ft 267 kts 297°
2026-04-22 15:28 43.20234 -2.64266 4831 ft 254 kts 297°
2026-04-22 15:28 43.21014 -2.66375 4444 ft 243 kts 298°
2026-04-22 15:29 43.21756 -2.68383 4090 ft 229 kts 298°
2026-04-22 15:29 43.22454 -2.70274 3755 ft 221 kts 299°
2026-04-22 15:29 43.23138 -2.72123 3428 ft 214 kts 299°
2026-04-22 15:30 43.24399 -2.75540 2813 ft 190 kts 299°
2026-04-22 15:30 43.24974 -2.77100 2549 ft 178 kts 301°
2026-04-22 15:30 43.25523 -2.78588 2270 ft 173 kts 301°
2026-04-22 15:30 43.26055 -2.80032 2022 ft 166 kts 301°
2026-04-22 15:31 43.26563 -2.81411 1769 ft 157 kts 300°
2026-04-22 15:31 43.27041 -2.82712 1534 ft 148 kts 300°
2026-04-22 15:31 43.27494 -2.83942 1325 ft 140 kts 299°
2026-04-22 15:31 43.27924 -2.85110 1109 ft 134 kts 298°
2026-04-22 15:32 43.28332 -2.86226 877 ft 127 kts 298°
2026-04-22 15:32 43.28733 -2.87294 645 ft 125 kts 298°
2026-04-22 15:32 43.29114 -2.88330 472 ft 120 kts 295°
2026-04-22 15:32 43.29496 -2.89397 336 ft 129 kts 298°
2026-04-22 15:33 43.29908 -2.90506 148 ft 126 kts 296°
2026-04-22 15:33 43.30253 -2.91447 125 ft 90 kts 296°
2026-04-22 15:33 43.30433 -2.91880 126 ft 35 kts 312°
2026-04-22 15:33 43.30574 -2.92028 127 ft 17 kts 342°
2026-04-22 15:34 43.30629 -2.91983 128 ft 9 kts 89°
2026-04-22 15:34 43.30603 -2.91895 125 ft 12 kts 116°
2026-04-22 15:34 43.30557 -2.91769 123 ft 16 kts 117°
2026-04-22 15:34 43.30508 -2.91637 125 ft 15 kts 117°
2026-04-22 15:35 43.30478 -2.91556 125 ft 14 kts 117°
2026-04-22 15:35 43.30422 -2.91403 126 ft 13 kts 116°
2026-04-22 15:35 43.30375 -2.91274 128 ft 20 kts 116°
2026-04-22 15:35 43.30317 -2.91116 126 ft 18 kts 117°
2026-04-22 15:36 43.30344 -2.91013 125 ft 11 kts 28°
2026-04-22 15:36 43.30398 -2.90958 124 ft 8 kts 65°
2026-04-22 15:36 43.30406 -2.90901 127 ft 6 kts 84°
2026-04-22 15:36 43.30408 -2.90861 127 ft 3 kts 88°
2026-04-22 15:37 43.30408 -2.90838 127 ft 2 kts 89°
2026-04-22 15:37 43.30408 -2.90823 127 ft 1 kts 95°
2026-04-22 15:37 43.30407 -2.90814 127 ft 1 kts 100°
2026-04-22 15:37 43.30405 -2.90782 127 ft 3 kts 70°
2026-04-22 15:38 43.30442 -2.90753 123 ft 8 kts 24°
2026-04-22 15:38 43.30463 -2.90739 125 ft 0 kts 27°